Location: Three Guys Observatory
(38.6418°N, 87.1521°W)
Time: 20:44:09
(UTC-04:00)

ISS - Visible Passes

Search period start: 24 July 2017 00:00
Search period end: 03 August 2017 00:00
Orbit: 400 x 408 km, 51.6° (Epoch: 25 July)

Date Brightness Start Highest point End Pass type
(mag) Time Alt. Az. Time Alt. Az. Time Alt. Az.
24 Jul -0.2 02:49:41 10° N 02:50:15 10° NNE 02:50:49 10° NNE visible
24 Jul -1.9 04:24:33 10° NW 04:27:32 31° NNE 04:30:30 10° E visible
24 Jul -2.8 06:01:08 10° WNW 06:03:55 26° SW 06:06:41 10° S visible
24 Jul -2.5 22:39:35 10° WSW 22:42:41 42° NW 22:45:48 10° NE visible
25 Jul -0.3 00:18:38 10° NW 00:19:50 12° NNW 00:21:03 10° N visible
25 Jul -1.1 03:32:30 10° NNW 03:35:02 20° NNE 03:37:34 10° ENE visible
25 Jul -3.8 05:08:31 10° WNW 05:11:42 53° SW 05:14:54 10° SE visible
25 Jul -3.8 21:47:04 10° SW 21:50:19 83° NW 21:53:35 10° NE visible
25 Jul -0.6 23:25:12 10° WNW 23:27:13 15° NNW 23:29:14 10° NNE visible
26 Jul -1.1 22:32:02 10° W 22:34:38 22° NNW 22:37:15 10° NNE visible
27 Jul -2.0 21:39:08 10° W 21:42:08 34° NNW 21:45:09 10° NE visible
27 Jul -0.4 23:18:34 10° NNW 23:19:23 11° NNW 23:20:11 10° N visible
28 Jul -0.7 22:24:55 10° NW 22:26:41 14° NNW 22:28:27 10° NNE visible
29 Jul -0.9 21:31:38 10° WNW 21:34:03 19° NNW 21:36:29 10° NNE visible
30 Jul -0.3 00:47:54 10° N 00:48:16 11° N 00:48:16 11° N visible
31 Jul -0.8 21:24:34 10° NW 21:26:03 12° NNW 21:27:33 10° N visible
01 Aug -0.3 00:38:56 10° NNW 00:39:19 12° NNW 00:39:19 12° NNW visible
01 Aug -0.9 23:46:56 10° NNW 23:48:34 13° NNE 23:48:34 13° NNE visible
02 Aug -0.8 22:55:15 10° N 22:55:50 10° NNE 22:56:25 10° NNE visible
